DELTA 1 DEB, 7135

Orbit data source: Space-Track

DELTA 1 DEB, 7135 is space debris in SSO originally from a launch on Tue, 06 Nov 1973 UTC launched from the Air Force Western Test Range (AFWTR). Debris objects in space refer to the collection of defunct objects orbiting the Earth. Examples of debris include non-operational satellites, rocket bodies, and fragments generated from explosions, collisions, or faulty payload assembly.

Loading next visibility...
Identifier
7135, 1973-086CZ
Orbit
SSO
Country
Flag of USUS
Related business
Manufacturer
Unknown
Mission
Spacecraft
Bus & Motor
Unknown
Mass
Unknown
Launch date (UTC)
1973-11-06 (53 years ago)
Launch vehicle
Unknown
Launch site
Air Force Western Test Range (AFWTR)
Object type
Payload
Rocket body
Debris
Shape & HBR
Unknown shape, 0.2 m
Radar Cross Section
Medium (>0.1 m² and <1 m²)

Expand to show TLE details & history
Last TLE update: 21 hours ago

TLE from 21 hours ago
0 DELTA 1 DEB
1 07135U 73086CZ  26264.19279808  .00000089  00000-0  73252-3 0  9993
2 07135 102.2389 239.4799 0130589 223.1400 135.9385 12.64284946425746
Epoch: 2026-09-21T04:37Z
TLE epoch observation values (Epoch: 2026-09-21T04:37:37.754Z)
Latitude
0.00002°
Longitude
169.99644°
Altitude
1,481.565 km
Speed
7.089 km/s
True Right ascension
15h 57m 55s
True Declination
0° 00' 00"
Sunlit
Object was in daylight at epoch
Visualization orbit readout
Latitude
Unknown
Longitude
Unknown
Altitude
Unknown
Speed
Unknown
Apparent Right ascension
Unknown
Apparent Declination
Unknown
Sunlit
N/A
Visualization observer readout
Local Sidereal Time
18:19:21
Azimuth
Unknown
Elevation
Unknown
Doppler factor
Unknown
Orbital elements
Apogee altitude
1,504.476 km
Perigee altitude
1,301.254 km
Semi-major axis
7,781.002 km
Eccentricity
0.01306
Inclination
102.2389°
RAAN
239.4799°
Arg. of periapsis
223.14°
True anomaly
136.96704°
Mean anomaly
135.9385°
Eccentric anomaly
136.45398°
Mean motion
3.1622 °/min
Orbital period
113.84 mins
BSTAR
0.00073252
Loading maneuver chart data...
Computing Atmospheric mass density...
Loading historical data...
Loading historical data...
Loading historical data...
Loading historical data...
Loading historical data...
Loading historical data...
Loading historical data...

Documentation

Showing up to 5 results
|